スワン彗星

C/2020 F8 ( SWAN )

English version
Home page
Updated on July 27, 2020

---------------------------------------------------------------------

・ プロフィール

発見日 2020年3月25日
発見光度
発見者 M. Mattiazzo, Swan Hill, Vic., Australia (Solar Wind Anisotropies (SWAN) camera on the Solar and Heliospheric Observer (SOHO) spacecraft)

・ 写真集

・ 軌道要素

Epoch 2020 May 31.0 TT = JDT 2459000.5
T 2020 May 27.54127 TT                                  Rudenko
q   0.4302998            (2000.0)            P               Q
z  -0.0005686      Peri.   68.18971     -0.38890640     +0.03070033
 +/-0.0001539      Node   260.03800     -0.62867020     +0.72173889
e   1.0002447      Incl.  110.79434     +0.67344309     +0.69148424
From 321 observations 2020 Apr. 10-May 12, mean residual 0".7.

・ 星図

・ 光度変化

        m1 =  7.0 + 5 logΔ + 10.0 log r          [   ,-25]  (              〜2020年 5月 2日)
        m1 = 11.0 + 5 logΔ + 15.0 log r(t + 30)  [-25,-17]  (2020年 5月 2日〜2020年 5月10日)
        m1 =  7.0 + 5 logΔ +  0.0 log r          [-17,  0]  (2020年 5月10日〜2020年 5月27日)
        m1 = 10.7 + 5 logΔ + 10.0 log r          [  0,   ]  (2020年 5月27日〜              )

---------------------------------------------------------------------

軌道要素はM.P.E.C. 2020-O07に掲載されたものです。
星図はステラナビゲータ Ver.10 (アストロアーツ) で作成したものです。
光度グラフはComet for Windowsで作成したものです。

---------------------------------------------------------------------

Copyright(C) Seiichi Yoshida (comet@aerith.net). All rights reserved.